Tracking 31027 objects as of 19-Jul-2025
HD Live streaming from Space Station
objects crossing your sky now

KYOKKO 1 (EXOS A)

Track KYOKKO 1 (EXOS A) now!
10-day predictions
KYOKKO 1 (EXOS A) is classified as:


NORAD ID: 10664
Int'l Code: 1978-014A
Perigee: 656.7 km
Apogee: 3,936.6 km
Inclination: 65.4 °
Period: 133.8 minutes
Semi major axis: 8667 km
RCS: 1.0778 m2 (large)
Launch date: February 4, 1978
Source: Japan (JPN)
Launch site: KAGOSHIMA SPACE CENTER UNIVERSITY OF TOKYO (KSCUT)
Your satellite tracking list
CREW DRAGON DEMO-2 DEB
Track 1 satellite(s)




NASA's NSSDC Master Catalog

Two Line Element Set (TLE):
1 10664U 78014A   25199.62096170  .00000066  00000-0  13229-3 0  9996
2 10664  65.3770  75.7275 1892049  95.7914 286.0556 10.75850795846881
Source of the keplerian elements: AFSPC